Time,TemperatureF,DewpointF,PressureIn,WindDirection,WindDirectionDegrees,WindSpeedMPH,WindSpeedGustMPH,Humidity,HourlyPrecipIn,Conditions,Clouds,dailyrainin,SoftwareType,DateUTC
2013-05-27 00:04:00,55.7,50.0,30.30,WSW,257,0.0,0.0,81,0.00,,,0.00,weatherlink.com 1.10,2013-05-27 04:04:00,
2013-05-27 00:19:00,55.2,51.0,30.29,WSW,257,0.0,0.0,84,0.00,,,0.00,weatherlink.com 1.10,2013-05-27 04:19:00,
2013-05-27 00:34:00,54.6,50.0,30.29,WSW,257,0.0,0.0,85,0.00,,,0.00,weatherlink.com 1.10,2013-05-27 04:34:00,
2013-05-27 00:49:00,53.9,49.0,30.29,WSW,257,0.0,0.0,84,0.00,,,0.00,weatherlink.com 1.10,2013-05-27 04:49:00,
2013-05-27 01:04:00,53.8,49.0,30.29,WSW,257,0.0,0.0,85,0.00,,,0.00,weatherlink.com 1.10,2013-05-27 05:04:00,
2013-05-27 01:19:00,53.7,49.0,30.29,WSW,257,0.0,0.0,84,0.00,,,0.00,weatherlink.com 1.10,2013-05-27 05:19:00,
2013-05-27 01:34:00,53.9,49.0,30.29,WSW,257,0.0,0.0,84,0.00,,,0.00,weatherlink.com 1.10,2013-05-27 05:34:00,
2013-05-27 01:49:00,53.3,49.0,30.29,WSW,257,0.0,0.0,85,0.00,,,0.00,weatherlink.com 1.10,2013-05-27 05:49:00,
2013-05-27 02:04:00,53.0,49.0,30.28,WSW,257,0.0,0.0,86,0.00,,,0.00,weatherlink.com 1.10,2013-05-27 06:04:00,
2013-05-27 02:19:00,52.4,49.0,30.28,WSW,257,0.0,0.0,87,0.00,,,0.00,weatherlink.com 1.10,2013-05-27 06:19:00,
2013-05-27 02:35:00,52.0,48.0,30.28,WSW,257,0.0,0.0,87,0.00,,,0.00,weatherlink.com 1.10,2013-05-27 06:35:00,
2013-05-27 02:50:00,52.3,49.0,30.28,WSW,257,0.0,0.0,88,0.00,,,0.00,weatherlink.com 1.10,2013-05-27 06:50:00,
2013-05-27 03:05:00,52.0,49.0,30.28,WSW,257,0.0,0.0,88,0.00,,,0.00,weatherlink.com 1.10,2013-05-27 07:05:00,
2013-05-27 03:20:00,51.3,48.0,30.28,WSW,257,0.0,0.0,89,0.00,,,0.00,weatherlink.com 1.10,2013-05-27 07:20:00,
2013-05-27 03:35:00,50.8,48.0,30.28,WSW,257,0.0,0.0,90,0.00,,,0.00,weatherlink.com 1.10,2013-05-27 07:35:00,
2013-05-27 03:50:00,50.7,48.0,30.28,WSW,257,0.0,0.0,91,0.00,,,0.00,weatherlink.com 1.10,2013-05-27 07:50:00,
2013-05-27 04:05:00,50.8,48.0,30.28,WSW,257,0.0,0.0,91,0.00,,,0.00,weatherlink.com 1.10,2013-05-27 08:05:00,
2013-05-27 04:20:00,50.3,48.0,30.28,WSW,257,0.0,0.0,91,0.00,,,0.00,weatherlink.com 1.10,2013-05-27 08:20:00,
2013-05-27 04:35:00,50.1,48.0,30.29,WSW,257,0.0,0.0,91,0.00,,,0.00,weatherlink.com 1.10,2013-05-27 08:35:00,
2013-05-27 04:50:00,50.0,48.0,30.29,WSW,257,0.0,0.0,92,0.00,,,0.00,weatherlink.com 1.10,2013-05-27 08:50:00,
2013-05-27 05:05:00,49.8,48.0,30.29,WSW,257,0.0,0.0,92,0.00,,,0.00,weatherlink.com 1.10,2013-05-27 09:05:00,
2013-05-27 05:20:00,49.5,47.0,30.29,WSW,257,0.0,0.0,92,0.00,,,0.00,weatherlink.com 1.10,2013-05-27 09:20:00,
2013-05-27 05:35:00,49.3,47.0,30.30,WSW,257,0.0,0.0,92,0.00,,,0.00,weatherlink.com 1.10,2013-05-27 09:35:00,
2013-05-27 05:50:00,49.0,47.0,30.30,WSW,257,0.0,0.0,92,0.00,,,0.00,weatherlink.com 1.10,2013-05-27 09:50:00,
2013-05-27 06:05:00,48.9,47.0,30.30,WSW,257,0.0,0.0,94,0.00,,,0.00,weatherlink.com 1.10,2013-05-27 10:05:00,
2013-05-27 06:20:00,49.2,48.0,30.31,WSW,257,0.0,0.0,94,0.00,,,0.00,weatherlink.com 1.10,2013-05-27 10:20:00,
2013-05-27 06:35:00,49.2,47.0,30.32,WSW,257,0.0,0.0,93,0.00,,,0.00,weatherlink.com 1.10,2013-05-27 10:35:00,
2013-05-27 06:50:00,49.2,48.0,30.32,WSW,257,0.0,0.0,94,0.00,,,0.00,weatherlink.com 1.10,2013-05-27 10:50:00,
2013-05-27 07:05:00,49.2,48.0,30.33,NNW,330,0.0,0.0,94,0.00,,,0.00,weatherlink.com 1.10,2013-05-27 11:05:00,
2013-05-27 07:20:00,49.6,48.0,30.34,NNW,330,0.0,0.0,94,0.00,,,0.00,weatherlink.com 1.10,2013-05-27 11:20:00,
2013-05-27 07:35:00,50.1,49.0,30.34,NNW,330,0.0,0.0,94,0.00,,,0.00,weatherlink.com 1.10,2013-05-27 11:35:00,
2013-05-27 07:50:00,51.6,50.0,30.34,NNW,330,0.0,0.0,93,0.00,,,0.00,weatherlink.com 1.10,2013-05-27 11:50:00,
2013-05-27 08:05:00,54.0,51.0,30.34,NNW,330,0.0,0.0,90,0.00,,,0.00,weatherlink.com 1.10,2013-05-27 12:05:00,
2013-05-27 08:20:00,56.1,52.0,30.34,NNW,330,0.0,0.0,87,0.00,,,0.00,weatherlink.com 1.10,2013-05-27 12:20:00,
2013-05-27 08:35:00,57.8,53.0,30.34,NNW,330,0.0,0.0,84,0.00,,,0.00,weatherlink.com 1.10,2013-05-27 12:35:00,
2013-05-27 08:50:00,59.7,53.0,30.34,NNW,330,0.0,0.0,78,0.00,,,0.00,weatherlink.com 1.10,2013-05-27 12:50:00,
2013-05-27 09:05:00,61.8,55.0,30.34,NNW,330,0.0,0.0,77,0.00,,,0.00,weatherlink.com 1.10,2013-05-27 13:05:00,
2013-05-27 09:20:00,63.3,54.0,30.34,NNW,330,0.0,0.0,72,0.00,,,0.00,weatherlink.com 1.10,2013-05-27 13:20:00,
2013-05-27 09:35:00,64.2,54.0,30.34,NNW,330,0.0,0.0,70,0.00,,,0.00,weatherlink.com 1.10,2013-05-27 13:35:00,
2013-05-27 09:50:00,65.4,55.0,30.33,SW,235,0.0,0.0,68,0.00,,,0.00,weatherlink.com 1.10,2013-05-27 13:50:00,
2013-05-27 10:06:00,66.8,55.0,30.33,WSW,254,0.0,0.0,67,0.00,,,0.00,weatherlink.com 1.10,2013-05-27 14:06:00,
2013-05-27 10:21:00,68.6,55.0,30.32,WSW,254,0.0,0.0,63,0.00,,,0.00,weatherlink.com 1.10,2013-05-27 14:21:00,
2013-05-27 10:36:00,69.7,55.0,30.32,WSW,247,0.0,0.0,60,0.00,,,0.00,weatherlink.com 1.10,2013-05-27 14:36:00,
2013-05-27 10:51:00,70.2,55.0,30.31,SW,229,0.0,0.0,58,0.00,,,0.00,weatherlink.com 1.10,2013-05-27 14:51:00,
2013-05-27 11:06:00,70.5,54.0,30.31,WNW,283,0.0,0.0,56,0.00,,,0.00,weatherlink.com 1.10,2013-05-27 15:06:00,
2013-05-27 11:21:00,71.0,55.0,30.31,East,101,0.0,0.0,58,0.00,,,0.00,weatherlink.com 1.10,2013-05-27 15:21:00,
2013-05-27 11:36:00,71.5,56.0,30.30,NNE,12,0.0,0.0,58,0.00,,,0.00,weatherlink.com 1.10,2013-05-27 15:36:00,
2013-05-27 11:51:00,71.8,56.0,30.30,West,274,0.0,0.0,57,0.00,,,0.00,weatherlink.com 1.10,2013-05-27 15:51:00,
2013-05-27 12:06:00,72.6,57.0,30.30,WNW,298,0.0,0.0,58,0.00,,,0.00,weatherlink.com 1.10,2013-05-27 16:06:00,
2013-05-27 12:21:00,73.4,58.0,30.30,NW,305,0.0,0.0,58,0.00,,,0.00,weatherlink.com 1.10,2013-05-27 16:21:00,
2013-05-27 12:36:00,73.9,57.0,30.29,NW,316,0.0,0.0,55,0.00,,,0.00,weatherlink.com 1.10,2013-05-27 16:36:00,
2013-05-27 12:51:00,74.0,58.0,30.29,East,97,0.0,0.0,58,0.00,,,0.00,weatherlink.com 1.10,2013-05-27 16:51:00,
2013-05-27 13:06:00,74.3,57.0,30.29,WNW,295,0.0,0.0,55,0.00,,,0.00,weatherlink.com 1.10,2013-05-27 17:06:00,
2013-05-27 13:21:00,74.5,57.0,30.28,SE,131,0.0,0.0,54,0.00,,,0.00,weatherlink.com 1.10,2013-05-27 17:21:00,
2013-05-27 13:36:00,74.1,57.0,30.28,NNW,329,0.0,0.0,56,0.00,,,0.00,weatherlink.com 1.10,2013-05-27 17:36:00,
2013-05-27 13:51:00,75.0,59.0,30.27,NE,40,0.0,0.0,57,0.00,,,0.00,weatherlink.com 1.10,2013-05-27 17:51:00,
2013-05-27 14:06:00,75.4,57.0,30.27,NW,315,0.0,0.0,53,0.00,,,0.00,weatherlink.com 1.10,2013-05-27 18:06:00,
2013-05-27 14:21:00,75.1,56.0,30.27,West,263,0.0,0.0,52,0.00,,,0.00,weatherlink.com 1.10,2013-05-27 18:21:00,
2013-05-27 14:36:00,75.5,59.0,30.25,East,96,0.0,0.0,56,0.00,,,0.00,weatherlink.com 1.10,2013-05-27 18:36:00,
2013-05-27 14:51:00,76.0,59.0,30.25,East,96,0.0,0.0,56,0.00,,,0.00,weatherlink.com 1.10,2013-05-27 18:51:00,
2013-05-27 15:06:00,76.3,58.0,30.24,East,101,0.0,0.0,54,0.00,,,0.00,weatherlink.com 1.10,2013-05-27 19:06:00,
2013-05-27 15:21:00,75.6,59.0,30.24,East,94,0.0,0.0,56,0.00,,,0.00,weatherlink.com 1.10,2013-05-27 19:21:00,
2013-05-27 15:36:00,75.2,59.0,30.23,WNW,292,0.0,0.0,58,0.00,,,0.00,weatherlink.com 1.10,2013-05-27 19:36:00,
2013-05-27 15:51:00,75.7,58.0,30.23,NNW,336,0.0,0.0,54,0.00,,,0.00,weatherlink.com 1.10,2013-05-27 19:51:00,
2013-05-27 16:06:00,75.8,60.0,30.23,West,265,0.0,0.0,59,0.00,,,0.00,weatherlink.com 1.10,2013-05-27 20:06:00,
2013-05-27 16:21:00,76.0,60.0,30.23,ESE,111,0.0,0.0,57,0.00,,,0.00,weatherlink.com 1.10,2013-05-27 20:21:00,
2013-05-27 16:36:00,75.2,60.0,30.23,ESE,111,0.0,0.0,59,0.00,,,0.00,weatherlink.com 1.10,2013-05-27 20:36:00,
2013-05-27 16:51:00,75.7,57.0,30.23,ESE,117,0.0,0.0,53,0.00,,,0.00,weatherlink.com 1.10,2013-05-27 20:51:00,
2013-05-27 17:06:00,75.9,59.0,30.22,ESE,117,0.0,0.0,57,0.00,,,0.00,weatherlink.com 1.10,2013-05-27 21:06:00,
2013-05-27 17:21:00,75.8,59.0,30.22,ESE,117,0.0,0.0,56,0.00,,,0.00,weatherlink.com 1.10,2013-05-27 21:21:00,
2013-05-27 17:36:00,75.2,58.0,30.22,North,5,0.0,0.0,55,0.00,,,0.00,weatherlink.com 1.10,2013-05-27 21:36:00,
2013-05-27 17:51:00,75.3,58.0,30.21,East,80,0.0,0.0,55,0.00,,,0.00,weatherlink.com 1.10,2013-05-27 21:51:00,
2013-05-27 18:06:00,75.1,57.0,30.21,East,80,0.0,0.0,53,0.00,,,0.00,weatherlink.com 1.10,2013-05-27 22:06:00,
2013-05-27 18:21:00,75.1,60.0,30.21,NE,55,0.0,0.0,59,0.00,,,0.00,weatherlink.com 1.10,2013-05-27 22:21:00,
2013-05-27 18:37:00,74.4,59.0,30.22,NNW,338,0.0,0.0,58,0.00,,,0.00,weatherlink.com 1.10,2013-05-27 22:37:00,
2013-05-27 18:52:00,74.4,59.0,30.22,ENE,76,0.0,0.0,58,0.00,,,0.00,weatherlink.com 1.10,2013-05-27 22:52:00,
2013-05-27 19:07:00,74.5,58.0,30.22,ENE,76,0.0,0.0,57,0.00,,,0.00,weatherlink.com 1.10,2013-05-27 23:07:00,
2013-05-27 19:22:00,74.3,59.0,30.22,ENE,76,0.0,0.0,59,0.00,,,0.00,weatherlink.com 1.10,2013-05-27 23:22:00,
2013-05-27 19:37:00,73.5,59.0,30.22,WNW,298,0.0,0.0,61,0.00,,,0.00,weatherlink.com 1.10,2013-05-27 23:37:00,
2013-05-27 19:52:00,72.6,59.0,30.22,WNW,298,0.0,0.0,62,0.00,,,0.00,weatherlink.com 1.10,2013-05-27 23:52:00,
2013-05-27 20:07:00,71.3,59.0,30.22,WNW,298,0.0,0.0,65,0.00,,,0.00,weatherlink.com 1.10,2013-05-28 00:07:00,
2013-05-27 20:22:00,70.3,57.0,30.21,WNW,298,0.0,0.0,64,0.00,,,0.00,weatherlink.com 1.10,2013-05-28 00:22:00,
2013-05-27 20:37:00,69.5,57.0,30.21,WNW,298,0.0,0.0,64,0.00,,,0.00,weatherlink.com 1.10,2013-05-28 00:37:00,
2013-05-27 20:52:00,68.6,56.0,30.21,WNW,298,0.0,0.0,64,0.00,,,0.00,weatherlink.com 1.10,2013-05-28 00:52:00,
2013-05-27 21:07:00,68.1,56.0,30.21,WNW,298,0.0,0.0,65,0.00,,,0.00,weatherlink.com 1.10,2013-05-28 01:07:00,
2013-05-27 21:22:00,67.5,56.0,30.22,WNW,298,0.0,0.0,66,0.00,,,0.00,weatherlink.com 1.10,2013-05-28 01:22:00,
2013-05-27 21:37:00,66.9,56.0,30.23,WNW,298,0.0,0.0,68,0.00,,,0.00,weatherlink.com 1.10,2013-05-28 01:37:00,
2013-05-27 21:52:00,66.8,56.0,30.24,WNW,298,0.0,0.0,68,0.00,,,0.00,weatherlink.com 1.10,2013-05-28 01:52:00,
2013-05-27 22:07:00,66.9,56.0,30.24,WNW,298,0.0,0.0,68,0.00,,,0.00,weatherlink.com 1.10,2013-05-28 02:07:00,
2013-05-27 22:22:00,66.9,56.0,30.24,WNW,298,0.0,0.0,69,0.00,,,0.00,weatherlink.com 1.10,2013-05-28 02:22:00,
2013-05-27 22:37:00,66.2,57.0,30.25,WNW,298,0.0,0.0,71,0.00,,,0.00,weatherlink.com 1.10,2013-05-28 02:37:00,
2013-05-27 22:52:00,65.7,56.0,30.24,WNW,298,0.0,0.0,71,0.00,,,0.00,weatherlink.com 1.10,2013-05-28 02:52:00,
2013-05-27 23:07:00,65.4,57.0,30.25,WNW,298,0.0,0.0,73,0.00,,,0.00,weatherlink.com 1.10,2013-05-28 03:07:00,
2013-05-27 23:22:00,65.2,57.0,30.25,WNW,298,0.0,0.0,75,0.00,,,0.00,weatherlink.com 1.10,2013-05-28 03:22:00,
2013-05-27 23:37:00,64.7,57.0,30.25,WNW,298,0.0,0.0,75,0.00,,,0.00,weatherlink.com 1.10,2013-05-28 03:37:00,
2013-05-27 23:52:00,64.1,56.0,30.25,WNW,298,0.0,0.0,76,0.00,,,0.00,weatherlink.com 1.10,2013-05-28 03:52:00,